Location: Stuttgart
(48.7824°N, 9.1964°E)
Time: 20:55:50
(UTC+01:00)

ISS - Pass Details

Date: 27 January 2019
Orbit: 403 x 411 km, 51.6° (Epoch: 18 February)

Event Time Altitude Azimuth Distance (km) Brightness Sun altitude
Rises 19:57:32 0° 270° (W) 2,336 1.3 -27.1°
Reaches altitude 10° 19:59:39 10° 276° (W) 1,477 0.0 -27.4°
Enters shadow 20:00:55 21° 283° (WNW) 995 -1.2 -27.6°
